Location: Killam
(52.7910°N, 111.8608°W)
Time: 23:33:37
(UTC+00:00)

RS-44 - Visible Passes

Search period start: 13 March 2026 00:00
Search period end: 23 March 2026 00:00
Orbit: 1174 x 1511 km, 82.5° (Epoch: 13 March)

Date Brightness Start Highest point End Pass type
(mag) Time Alt. Az. Time Alt. Az. Time Alt. Az.
13 Mar ? 02:07:11 10° W 02:11:41 17° NW 02:16:21 10° N visible
13 Mar ? 08:00:07 10° N 08:06:24 24° NE 08:12:35 11° ESE visible
13 Mar ? 09:53:04 10° N 10:01:17 78° ENE 10:05:07 38° SSE visible
13 Mar ? 11:47:14 10° NNW 11:54:05 31° W 11:57:39 23° WSW visible
14 Mar ? 02:33:39 10° WNW 02:36:26 12° NW 02:39:18 10° NNW visible
14 Mar ? 06:33:36 10° NNE 06:34:04 10° NNE 06:34:31 10° NE visible
14 Mar ? 08:23:36 10° N 08:30:48 32° ENE 08:35:36 20° ESE visible
14 Mar ? 10:16:52 10° NNW 10:25:04 78° W 10:28:09 45° S visible
14 Mar ? 12:11:36 10° NNW 12:17:20 21° WNW 12:20:42 17° WSW visible
15 Mar ? 06:55:01 10° N 06:58:58 14° NE 07:03:02 10° ENE visible
15 Mar ? 08:47:11 10° N 08:55:00 45° ENE 08:58:45 30° ESE visible
15 Mar ? 10:40:45 10° NNW 10:48:44 56° W 10:51:18 43° SW visible
15 Mar ? 12:36:32 10° NW 12:40:26 14° WNW 12:43:52 11° W visible
16 Mar ? 07:18:08 10° N 07:23:42 19° NE 07:29:25 10° E visible
16 Mar ? 09:10:52 10° N 09:19:03 62° ENE 09:21:59 43° SE visible
16 Mar ? 11:04:44 10° NNW 11:12:15 40° W 11:14:32 34° WSW visible
17 Mar ? 07:41:32 10° N 07:48:14 26° NE 07:52:42 18° E visible
17 Mar ? 09:34:36 10° N 09:42:58 84° ENE 09:45:15 55° SSE visible
17 Mar ? 11:28:53 10° NNW 11:35:37 28° W 11:37:49 25° WSW visible
18 Mar ? 02:15:52 10° NW 02:18:18 12° NW 02:20:46 10° NNW visible
18 Mar ? 06:13:37 10° NNE 06:16:00 11° NE 06:18:26 10° NE visible
18 Mar ? 08:05:04 10° N 08:12:35 36° ENE 08:16:01 27° ESE visible
18 Mar ? 09:58:26 10° NNW 10:06:44 72° W 10:08:35 57° SSW visible
18 Mar ? 11:53:21 10° NNW 11:58:50 20° WNW 12:01:09 18° W visible
19 Mar ? 06:36:15 10° N 06:40:53 15° NE 06:45:38 10° ENE visible
19 Mar ? 08:28:42 10° N 08:36:46 49° ENE 08:39:23 39° ESE visible
19 Mar ? 10:22:20 10° NNW 10:30:22 52° W 10:31:58 47° WSW visible
19 Mar ? 12:18:32 10° NW 12:21:52 13° WNW 12:24:32 11° W visible
20 Mar ? 06:59:31 10° N 07:05:35 21° NE 07:10:13 14° E visible
20 Mar ? 08:52:24 10° N 09:00:48 67° ENE 09:02:47 54° SE visible
20 Mar ? 10:46:22 10° NNW 10:53:50 37° W 10:55:21 35° WSW visible
21 Mar ? 07:23:00 10° N 07:30:04 29° ENE 07:33:39 22° E visible
21 Mar ? 09:16:11 10° NNW 09:24:40 90° W 09:26:13 66° S visible
21 Mar ? 11:10:35 10° NNW 11:17:10 26° WNW 11:18:48 25° W visible
22 Mar ? 05:54:35 10° NNE 05:57:57 13° NE 06:01:23 10° ENE visible
22 Mar ? 07:46:35 10° N 07:54:23 39° ENE 07:57:06 32° E visible
22 Mar ? 09:40:01 10° NNW 09:48:24 67° W 09:49:41 60° SW visible
22 Mar ? 11:35:09 10° NNW 11:40:19 18° WNW 11:42:15 17° W visible
